This demonstration page uses our WeatherBlox Daily Observations layout. Learn more.

Left ArrowRight Arrow

Hourly Observations for July 16, 2016

Temp ( °F °C ) Dew Point ( °F °C ) Humidity (%) Winds ( mph kmh ) Pressure ( in mb ) Visibility ( mi km ) Precip ( " mm )
12:51 am 00:51 Clear 83 28.3 45 7.2 26 26 NW 7 11 29.71 1006 10 16 0.00 0.00
1:51 am 01:51 Clear 81 27.2 44 6.7 27 27 WSW 6 9 29.73 1007 10 16 0.00 0.00
2:51 am 02:51 Clear 81 27.2 53 11.7 38 38 ENE 9 15 29.75 1007 10 16 0.00 0.00
3:51 am 03:51 Clear 80 26.7 55 12.8 42 42 NE 7 11 29.76 1008 10 16 0.00 0.00
4:51 am 04:51 Clear 80 26.7 55 12.8 42 42 E 7 11 29.79 1009 10 16 0.00 0.00
5:51 am 05:51 Sunny 80 26.7 55 12.8 42 42 E 5 7 29.83 1010 10 16 0.00 0.00
6:51 am 06:51 Sunny 83 28.3 55 12.8 38 38 SSE 5 7 29.85 1011 10 16 0.00 0.00
7:51 am 07:51 Sunny 88 31.1 53 11.7 30 30 WNW 13 20 29.85 1011 10 16 0.00 0.00
8:24 am 08:24 Sunny 90 32.2 54 12.2 29 29 NW 15 24 29.80 1009 10 16 0.00 0.00
8:51 am 08:51 Sunny 91 32.8 54 12.2 28 28 WNW 16 26 29.85 1011 10 16 0.00 0.00
9:51 am 09:51 Sunny 91 32.8 53 11.7 27 27 NW 15 24 29.84 1011 10 16 0.00 0.00
10:51 am 10:51 Sunny 94 34.4 53 11.7 25 25 NW 14 22 29.82 1010 10 16 0.00 0.00
11:51 am 11:51 Sunny 98 36.7 52 11.1 21 21 WNW 20 31 29.78 1009 10 16 0.00 0.00
12:51 pm 12:51 Sunny 100 37.8 51 10.6 19 19 WNW 20 31 29.75 1008 10 16 0.00 0.00
1:51 pm 13:51 Sunny 102 38.9 50 10 17 17 W 20 31 29.72 1007 10 16 0.00 0.00
2:51 pm 14:51 Sunny 103 39.4 49 9.4 16 16 WNW 20 31 29.69 1005 10 16 0.00 0.00
3:51 pm 15:51 Sunny 104 40 46 7.8 14 14 WNW 16 26 29.66 1004 10 16 0.00 0.00
4:51 pm 16:51 Sunny 104 40 45 7.2 13 13 NW 16 26 29.64 1004 10 16 0.00 0.00
5:51 pm 17:51 Sunny 102 38.9 46 7.8 15 15 NW 15 24 29.64 1004 10 16 0.00 0.00
6:51 pm 18:51 Sunny 100 37.8 46 7.8 16 16 WNW 16 26 29.65 1004 10 16 0.00 0.00
7:51 pm 19:51 Clear 95 35 47 8.3 19 19 NW 9 15 29.68 1005 10 16 0.00 0.00
8:51 pm 20:51 Clear 93 33.9 46 7.8 20 20 ENE 3 6 29.73 1007 10 16 0.00 0.00
9:33 pm 21:33 Mostly Clear 89 31.7 53 11.7 29 29 S 30 48 29.71 1006 10 16 0.00 0.00
9:51 pm 21:51 Mostly Clear 88 31.1 53 11.7 30 30 SSW 23 37 29.77 1008 10 16 0.00 0.00
10:51 pm 22:51 Clear 87 30.6 52 11.1 30 30 VRB 5 7 29.77 1008 10 16 0.00 0.00
11:51 pm 23:51 Clear 85 29.4 52 11.1 32 32 ENE 10 17 29.78 1008 10 16 0.00 0.00

Powered by AerisWeather